| time (UTC) | temp F | wind direction | speed MPH | gust MPH | rain 1hr in | rain 24hr in | rain mn in | humidity % | barometer mb |
| 20260831011207 | 65 | 0 | 0.0 | 0.0 | 0.00 | 0.00 | 0.00 | 7 | 1013.3 |
| 20260831010207 | 65 | 0 | 0.0 | 0.0 | 0.00 | 0.00 | 0.00 | 7 | 1013.1 |
| 20260831005706 | 65 | 0 | 0.0 | 0.0 | 0.00 | 0.00 | 0.00 | 7 | 1013.1 |
| 20260831005206 | 65 | 0 | 0.0 | 0.0 | 0.00 | 0.00 | 0.00 | 7 | 1013.0 |
| 20260831004706 | 65 | 0 | 0.0 | 0.0 | 0.00 | 0.00 | 0.00 | 7 | 1012.9 |
| 20260831004205 | 65 | 0 | 0.0 | 0.0 | 0.00 | 0.00 | 0.00 | 7 | 1013.2 |
| 20260831003705 | 65 | 0 | 0.0 | 0.0 | 0.00 | 0.00 | 0.00 | 7 | 1013.2 |
| 20260831003205 | 65 | 0 | 0.0 | 0.0 | 0.00 | 0.00 | 0.00 | 7 | 1013.0 |
| 20260831002704 | 64 | 0 | 0.0 | 0.0 | 0.00 | 0.00 | 0.00 | 7 | 1013.1 |
| 20260831002204 | 65 | 0 | 0.0 | 0.0 | 0.00 | 0.00 | 0.00 | 7 | 1013.2 |
| 20260831001703 | 65 | 0 | 0.0 | 0.0 | 0.00 | 0.00 | 0.00 | 7 | 1013.2 |
| 20260831001203 | 65 | 0 | 0.0 | 0.0 | 0.00 | 0.00 | 0.00 | 7 | 1013.2 |
| 20260831000703 | 65 | 0 | 0.0 | 0.0 | 0.00 | 0.00 | 0.00 | 7 | 1013.2 |
| 20260831000203 | 65 | 0 | 0.0 | 0.0 | 0.00 | 0.00 | 0.00 | 7 | 1013.3 |
| 20260830235702 | 65 | 0 | 0.0 | 0.0 | 0.00 | 0.00 | 0.00 | 7 | 1013.3 |
| 20260830235202 | 66 | 0 | 0.0 | 0.0 | 0.00 | 0.00 | 0.00 | 7 | 1013.5 |
| 20260830234701 | 66 | 0 | 0.0 | 0.0 | 0.00 | 0.00 | 0.00 | 7 | 1013.3 |
| 20260830234201 | 66 | 0 | 0.0 | 0.0 | 0.00 | 0.00 | 0.00 | 7 | 1013.4 |
| 20260830233701 | 66 | 0 | 0.0 | 0.0 | 0.00 | 0.00 | 0.00 | 7 | 1013.5 |
| 20260830233200 | 66 | 0 | 0.0 | 0.0 | 0.00 | 0.00 | 0.00 | 7 | 1013.6 |
| 20260830232700 | 67 | 0 | 0.0 | 0.0 | 0.00 | 0.00 | 0.00 | 7 | 1013.4 |
| 20260830232200 | 67 | 0 | 0.0 | 0.0 | 0.00 | 0.00 | 0.00 | 7 | 1013.3 |
| 20260830231659 | 67 | 0 | 0.0 | 0.0 | 0.00 | 0.00 | 0.00 | 7 | 1013.5 |
| 20260830231159 | 67 | 0 | 0.0 | 0.0 | 0.00 | 0.00 | 0.00 | 7 | 1013.4 |
| 20260830230659 | 67 | 0 | 0.0 | 0.0 | 0.00 | 0.00 | 0.00 | 6 | 1013.2 |
| 20260830230158 | 67 | 0 | 0.0 | 0.0 | 0.00 | 0.00 | 0.00 | 6 | 1013.4 |
| 20260830225658 | 68 | 0 | 0.0 | 0.0 | 0.00 | 0.00 | 0.00 | 6 | 1013.3 |
| 20260830225158 | 68 | 0 | 0.0 | 0.0 | 0.00 | 0.00 | 0.00 | 6 | 1013.4 |
| 20260830224657 | 68 | 0 | 0.0 | 0.0 | 0.00 | 0.00 | 0.00 | 6 | 1013.3 |
| 20260830224157 | 68 | 0 | 0.0 | 0.0 | 0.00 | 0.00 | 0.00 | 6 | 1013.4 |
| 20260830223657 | 68 | 0 | 0.0 | 0.0 | 0.00 | 0.00 | 0.00 | 6 | 1013.3 |
| 20260830223156 | 68 | 0 | 0.0 | 0.0 | 0.00 | 0.00 | 0.00 | 6 | 1013.3 |
| 20260830222656 | 68 | 0 | 0.0 | 0.0 | 0.00 | 0.00 | 0.00 | 6 | 1013.4 |
| 20260830222156 | 68 | 0 | 0.0 | 0.0 | 0.00 | 0.00 | 0.00 | 6 | 1013.5 |
| 20260830221655 | 68 | 0 | 0.0 | 0.0 | 0.00 | 0.00 | 0.00 | 6 | 1013.2 |
| 20260830221155 | 68 | 4 | 0.0 | 1.0 | 0.00 | 0.00 | 0.00 | 6 | 1013.3 |
| 20260830220655 | 69 | 0 | 0.0 | 0.0 | 0.00 | 0.00 | 0.00 | 6 | 1013.2 |
| 20260830220154 | 68 | 0 | 0.0 | 0.0 | 0.00 | 0.00 | 0.00 | 6 | 1013.4 |
| 20260830215654 | 68 | 0 | 0.0 | 0.0 | 0.00 | 0.00 | 0.00 | 6 | 1013.3 |
| 20260830215154 | 68 | 0 | 0.0 | 0.0 | 0.00 | 0.00 | 0.00 | 6 | 1013.3 |
| 20260830214654 | 68 | 0 | 0.0 | 0.0 | 0.00 | 0.00 | 0.00 | 6 | 1013.2 |
| 20260830214153 | 68 | 0 | 0.0 | 0.0 | 0.00 | 0.00 | 0.00 | 6 | 1013.1 |
| 20260830213653 | 69 | 0 | 0.0 | 0.0 | 0.00 | 0.00 | 0.00 | 6 | 1013.0 |
| 20260830213153 | 69 | 0 | 0.0 | 0.0 | 0.00 | 0.00 | 0.00 | 6 | 1013.2 |
| 20260830212652 | 69 | 0 | 0.0 | 0.0 | 0.00 | 0.00 | 0.00 | 6 | 1013.2 |
| 20260830212152 | 69 | 0 | 0.0 | 0.0 | 0.00 | 0.00 | 0.00 | 6 | 1013.1 |
| 20260830211651 | 69 | 0 | 0.0 | 0.0 | 0.00 | 0.00 | 0.00 | 6 | 1013.1 |
| 20260830211151 | 70 | 0 | 0.0 | 0.0 | 0.00 | 0.00 | 0.00 | 6 | 1013.0 |
| 20260830210651 | 70 | 0 | 0.0 | 0.0 | 0.00 | 0.00 | 0.00 | 6 | 1013.0 |
| 20260830210151 | 70 | 0 | 0.0 | 0.0 | 0.00 | 0.00 | 0.00 | 6 | 1013.0 |
| 20260830205650 | 70 | 0 | 0.0 | 0.0 | 0.00 | 0.00 | 0.00 | 6 | 1012.9 |
| 20260830205150 | 70 | 0 | 0.0 | 0.0 | 0.00 | 0.00 | 0.00 | 6 | 1012.9 |
| 20260830204650 | 71 | 0 | 0.0 | 0.0 | 0.00 | 0.00 | 0.00 | 6 | 1012.7 |
| 20260830204149 | 71 | 0 | 0.0 | 0.0 | 0.00 | 0.00 | 0.00 | 6 | 1013.0 |
| 20260830203649 | 71 | 0 | 0.0 | 0.0 | 0.00 | 0.00 | 0.00 | 6 | 1013.0 |
| 20260830203148 | 71 | 0 | 0.0 | 0.0 | 0.00 | 0.00 | 0.00 | 6 | 1012.9 |
| 20260830202648 | 71 | 0 | 0.0 | 0.0 | 0.00 | 0.00 | 0.00 | 5 | 1012.7 |
| 20260830202148 | 72 | 0 | 0.0 | 0.0 | 0.00 | 0.00 | 0.00 | 5 | 1013.0 |
| 20260830201647 | 72 | 358 | 0.0 | 1.0 | 0.00 | 0.00 | 0.00 | 5 | 1012.7 |
| 20260830201147 | 72 | 213 | 1.0 | 2.0 | 0.00 | 0.00 | 0.00 | 5 | 1012.8 |
| 20260830200647 | 72 | 0 | 0.0 | 0.0 | 0.00 | 0.00 | 0.00 | 5 | 1012.6 |
| 20260830200146 | 72 | 278 | 0.0 | 1.0 | 0.00 | 0.00 | 0.00 | 5 | 1012.9 |
| 20260830195646 | 71 | 0 | 0.0 | 0.0 | 0.00 | 0.00 | 0.00 | 6 | 1013.0 |
| 20260830195146 | 71 | 0 | 0.0 | 0.0 | 0.00 | 0.00 | 0.00 | 6 | 1012.9 |
| 20260830194646 | 70 | 0 | 0.0 | 0.0 | 0.00 | 0.00 | 0.00 | 6 | 1012.7 |
| 20260830194145 | 71 | 0 | 0.0 | 0.0 | 0.00 | 0.00 | 0.00 | 6 | 1012.7 |
| 20260830193645 | 71 | 24 | 0.0 | 1.0 | 0.00 | 0.00 | 0.00 | 5 | 1012.7 |
| 20260830193145 | 71 | 0 | 0.0 | 0.0 | 0.00 | 0.00 | 0.00 | 5 | 1012.7 |
| 20260830192644 | 71 | 0 | 0.0 | 0.0 | 0.00 | 0.00 | 0.00 | 5 | 1012.8 |
| 20260830192144 | 71 | 0 | 0.0 | 0.0 | 0.00 | 0.00 | 0.00 | 5 | 1012.7 |
| 20260830191644 | 71 | 0 | 0.0 | 0.0 | 0.00 | 0.00 | 0.00 | 5 | 1013.0 |
| 20260830191143 | 71 | 0 | 0.0 | 0.0 | 0.00 | 0.00 | 0.00 | 5 | 1012.7 |
| 20260830190643 | 71 | 0 | 0.0 | 0.0 | 0.00 | 0.00 | 0.00 | 5 | 1012.8 |
| 20260830190143 | 71 | 0 | 0.0 | 0.0 | 0.00 | 0.00 | 0.00 | 5 | 1012.7 |
| 20260830185642 | 71 | 0 | 0.0 | 0.0 | 0.00 | 0.00 | 0.00 | 5 | 1012.8 |
| 20260830185142 | 71 | 0 | 0.0 | 0.0 | 0.00 | 0.00 | 0.00 | 5 | 1012.7 |
| 20260830184642 | 71 | 0 | 0.0 | 0.0 | 0.00 | 0.00 | 0.00 | 5 | 1012.8 |
| 20260830184141 | 71 | 0 | 0.0 | 0.0 | 0.00 | 0.00 | 0.00 | 6 | 1012.7 |
| 20260830183641 | 71 | 0 | 0.0 | 0.0 | 0.00 | 0.00 | 0.00 | 6 | 1012.7 |
| 20260830183141 | 71 | 0 | 0.0 | 0.0 | 0.00 | 0.00 | 0.00 | 6 | 1012.7 |
| 20260830182640 | 71 | 0 | 0.0 | 0.0 | 0.00 | 0.00 | 0.00 | 5 | 1012.7 |
| 20260830182140 | 71 | 0 | 0.0 | 0.0 | 0.00 | 0.00 | 0.00 | 5 | 1012.6 |
| 20260830181640 | 72 | 0 | 0.0 | 0.0 | 0.00 | 0.00 | 0.00 | 5 | 1012.6 |
| 20260830181139 | 72 | 0 | 0.0 | 0.0 | 0.00 | 0.00 | 0.00 | 5 | 1012.5 |
| 20260830180639 | 72 | 0 | 0.0 | 0.0 | 0.00 | 0.00 | 0.00 | 5 | 1012.7 |
| 20260830180139 | 72 | 0 | 0.0 | 0.0 | 0.00 | 0.00 | 0.00 | 5 | 1012.6 |
| 20260830175638 | 72 | 0 | 0.0 | 0.0 | 0.00 | 0.00 | 0.00 | 5 | 1012.6 |
| 20260830175138 | 73 | 0 | 0.0 | 0.0 | 0.00 | 0.00 | 0.00 | 5 | 1012.6 |
| 20260830174638 | 73 | 0 | 0.0 | 0.0 | 0.00 | 0.00 | 0.00 | 5 | 1012.6 |
| 20260830174137 | 73 | 0 | 0.0 | 0.0 | 0.00 | 0.00 | 0.00 | 5 | 1012.5 |
| 20260830173637 | 73 | 0 | 0.0 | 0.0 | 0.00 | 0.00 | 0.00 | 5 | 1012.6 |
| 20260830173137 | 74 | 0 | 0.0 | 0.0 | 0.00 | 0.00 | 0.00 | 5 | 1012.4 |
| 20260830172636 | 74 | 0 | 0.0 | 0.0 | 0.00 | 0.00 | 0.00 | 5 | 1012.4 |
| 20260830172136 | 75 | 0 | 0.0 | 0.0 | 0.00 | 0.00 | 0.00 | 5 | 1012.5 |
| 20260830171636 | 75 | 0 | 0.0 | 0.0 | 0.00 | 0.00 | 0.00 | 5 | 1012.3 |
| 20260830171135 | 75 | 0 | 0.0 | 0.0 | 0.00 | 0.00 | 0.00 | 5 | 1012.2 |
| 20260830170635 | 75 | 0 | 0.0 | 0.0 | 0.00 | 0.00 | 0.00 | 5 | 1012.3 |
| 20260830170135 | 75 | 0 | 0.0 | 0.0 | 0.00 | 0.00 | 0.00 | 5 | 1012.4 |
| 20260830165634 | 75 | 0 | 0.0 | 0.0 | 0.00 | 0.00 | 0.00 | 5 | 1012.3 |
| 20260830165134 | 75 | 0 | 0.0 | 0.0 | 0.00 | 0.00 | 0.00 | 5 | 1012.2 |
| 20260830164634 | 75 | 18 | 0.0 | 1.0 | 0.00 | 0.00 | 0.00 | 5 | 1012.3 |
| 20260830164133 | 75 | 0 | 0.0 | 0.0 | 0.00 | 0.00 | 0.00 | 5 | 1012.4 |
| 20260830163633 | 75 | 0 | 0.0 | 0.0 | 0.00 | 0.00 | 0.00 | 5 | 1012.3 |
| 20260830163133 | 76 | 0 | 0.0 | 0.0 | 0.00 | 0.00 | 0.00 | 5 | 1012.1 |
| 20260830162632 | 76 | 0 | 0.0 | 0.0 | 0.00 | 0.00 | 0.00 | 5 | 1012.3 |
| 20260830162132 | 76 | 0 | 0.0 | 0.0 | 0.00 | 0.00 | 0.00 | 4 | 1012.3 |
| 20260830161632 | 77 | 0 | 0.0 | 0.0 | 0.00 | 0.00 | 0.00 | 5 | 1012.4 |
| 20260830161131 | 77 | 0 | 0.0 | 0.0 | 0.00 | 0.00 | 0.00 | 4 | 1012.3 |
| 20260830160631 | 77 | 0 | 0.0 | 0.0 | 0.00 | 0.00 | 0.00 | 4 | 1012.3 |
| 20260830160131 | 77 | 0 | 0.0 | 0.0 | 0.00 | 0.00 | 0.00 | 4 | 1012.4 |
| 20260830155630 | 77 | 42 | 0.0 | 1.0 | 0.00 | 0.00 | 0.00 | 4 | 1012.3 |
| 20260830155130 | 78 | 0 | 0.0 | 0.0 | 0.00 | 0.00 | 0.00 | 4 | 1012.5 |
| 20260830154630 | 78 | 0 | 0.0 | 0.0 | 0.00 | 0.00 | 0.00 | 4 | 1012.3 |
| 20260830154129 | 78 | 53 | 0.0 | 1.0 | 0.00 | 0.00 | 0.00 | 4 | 1012.0 |
| 20260830153629 | 78 | 3 | 0.0 | 1.0 | 0.00 | 0.00 | 0.00 | 4 | 1012.3 |
| 20260830153129 | 78 | 6 | 0.0 | 1.0 | 0.00 | 0.00 | 0.00 | 4 | 1012.5 |
| 20260830152628 | 78 | 0 | 0.0 | 0.0 | 0.00 | 0.00 | 0.00 | 4 | 1012.4 |
| 20260830152128 | 78 | 320 | 0.0 | 1.0 | 0.00 | 0.00 | 0.00 | 4 | 1012.5 |
| 20260830151628 | 78 | 0 | 0.0 | 0.0 | 0.00 | 0.00 | 0.00 | 4 | 1012.5 |
| 20260830151127 | 78 | 0 | 0.0 | 0.0 | 0.00 | 0.00 | 0.00 | 4 | 1012.5 |
| 20260830150627 | 78 | 336 | 0.0 | 1.0 | 0.00 | 0.00 | 0.00 | 4 | 1012.7 |
| 20260830150127 | 78 | 0 | 0.0 | 0.0 | 0.00 | 0.00 | 0.00 | 4 | 1012.7 |
| 20260830145626 | 78 | 20 | 0.0 | 1.0 | 0.00 | 0.00 | 0.00 | 4 | 1012.5 |
| 20260830145126 | 78 | 30 | 0.0 | 1.0 | 0.00 | 0.00 | 0.00 | 4 | 1012.6 |
| 20260830144626 | 78 | 26 | 0.0 | 1.0 | 0.00 | 0.00 | 0.00 | 4 | 1012.5 |
| 20260830144125 | 78 | 0 | 0.0 | 0.0 | 0.00 | 0.00 | 0.00 | 4 | 1012.6 |
| 20260830143625 | 78 | 209 | 2.0 | 3.0 | 0.00 | 0.00 | 0.00 | 4 | 1012.9 |
| 20260830143125 | 78 | 329 | 1.0 | 2.0 | 0.00 | 0.00 | 0.00 | 4 | 1012.8 |
| 20260830142624 | 78 | 29 | 0.0 | 1.0 | 0.00 | 0.00 | 0.00 | 4 | 1012.7 |
| 20260830142124 | 78 | 0 | 0.0 | 0.0 | 0.00 | 0.00 | 0.00 | 4 | 1012.8 |
| 20260830141624 | 78 | 351 | 1.0 | 2.0 | 0.00 | 0.00 | 0.00 | 4 | 1012.7 |
| 20260830141123 | 78 | 336 | 0.0 | 1.0 | 0.00 | 0.00 | 0.00 | 4 | 1013.0 |
| 20260830140623 | 78 | 39 | 1.0 | 2.0 | 0.00 | 0.00 | 0.00 | 4 | 1012.8 |
| 20260830140123 | 78 | 149 | 2.0 | 3.0 | 0.00 | 0.00 | 0.00 | 4 | 1012.9 |
| 20260830135622 | 78 | 357 | 0.0 | 1.0 | 0.00 | 0.00 | 0.00 | 4 | 1013.0 |
| 20260830135122 | 78 | 0 | 0.0 | 0.0 | 0.00 | 0.00 | 0.00 | 4 | 1012.8 |
| 20260830134622 | 78 | 38 | 1.0 | 2.0 | 0.00 | 0.00 | 0.00 | 4 | 1012.8 |
| 20260830134121 | 78 | 326 | 1.0 | 1.0 | 0.00 | 0.00 | 0.00 | 4 | 1013.2 |
| 20260830133621 | 78 | 82 | 0.0 | 1.0 | 0.00 | 0.00 | 0.00 | 4 | 1013.0 |
| 20260830133121 | 78 | 54 | 0.0 | 1.0 | 0.00 | 0.00 | 0.00 | 4 | 1013.1 |
| 20260830132620 | 78 | 39 | 0.0 | 1.0 | 0.00 | 0.00 | 0.00 | 4 | 1013.0 |
| 20260830132120 | 78 | 230 | 0.0 | 1.0 | 0.00 | 0.00 | 0.00 | 4 | 1013.3 |
| 20260830131620 | 78 | 75 | 0.0 | 1.0 | 0.00 | 0.00 | 0.00 | 4 | 1013.0 |
| 20260830131119 | 78 | 61 | 0.0 | 1.0 | 0.00 | 0.00 | 0.00 | 4 | 1013.1 |
| 20260830130619 | 79 | 0 | 0.0 | 0.0 | 0.00 | 0.00 | 0.00 | 4 | 1013.1 |
| 20260830130119 | 78 | 0 | 0.0 | 0.0 | 0.00 | 0.00 | 0.00 | 4 | 1013.1 |
| 20260830125618 | 79 | 92 | 0.0 | 1.0 | 0.00 | 0.00 | 0.00 | 4 | 1013.0 |
| 20260830125118 | 79 | 349 | 0.0 | 1.0 | 0.00 | 0.00 | 0.00 | 4 | 1013.3 |
| 20260830124618 | 78 | 16 | 0.0 | 1.0 | 0.00 | 0.00 | 0.00 | 4 | 1013.1 |
| 20260830124117 | 78 | 0 | 0.0 | 0.0 | 0.00 | 0.00 | 0.00 | 4 | 1013.3 |
| 20260830123617 | 78 | 54 | 0.0 | 1.0 | 0.00 | 0.00 | 0.00 | 4 | 1013.4 |
| 20260830123117 | 78 | 180 | 0.0 | 2.0 | 0.00 | 0.00 | 0.00 | 4 | 1013.1 |
| 20260830122616 | 79 | 327 | 1.0 | 3.0 | 0.00 | 0.00 | 0.00 | 4 | 1013.2 |
| 20260830122116 | 79 | 39 | 1.0 | 2.0 | 0.00 | 0.00 | 0.00 | 4 | 1013.4 |
| 20260830121616 | 79 | 357 | 0.0 | 1.0 | 0.00 | 0.00 | 0.00 | 4 | 1013.4 |
| 20260830121115 | 80 | 0 | 0.0 | 0.0 | 0.00 | 0.00 | 0.00 | 4 | 1013.4 |
| 20260830120615 | 80 | 0 | 0.0 | 1.0 | 0.00 | 0.00 | 0.00 | 4 | 1013.6 |
| 20260830120115 | 79 | 11 | 0.0 | 1.0 | 0.00 | 0.00 | 0.00 | 4 | 1013.5 |
| 20260830115614 | 79 | 0 | 0.0 | 0.0 | 0.00 | 0.00 | 0.00 | 4 | 1013.6 |
| 20260830115114 | 79 | 278 | 0.0 | 1.0 | 0.00 | 0.00 | 0.00 | 4 | 1013.6 |
| 20260830114614 | 79 | 6 | 0.0 | 1.0 | 0.00 | 0.00 | 0.00 | 4 | 1013.7 |
| 20260830114113 | 78 | 221 | 2.0 | 4.0 | 0.00 | 0.00 | 0.00 | 4 | 1013.8 |
| 20260830113613 | 79 | 47 | 0.0 | 1.0 | 0.00 | 0.00 | 0.00 | 4 | 1013.5 |
| 20260830113113 | 78 | 3 | 0.0 | 1.0 | 0.00 | 0.00 | 0.00 | 4 | 1013.9 |
| 20260830112612 | 78 | 0 | 0.0 | 0.0 | 0.00 | 0.00 | 0.00 | 4 | 1014.0 |
| 20260830112112 | 78 | 0 | 0.0 | 0.0 | 0.00 | 0.00 | 0.00 | 4 | 1013.8 |
| 20260830111612 | 78 | 15 | 0.0 | 1.0 | 0.00 | 0.01 | 0.00 | 4 | 1014.0 |
| 20260830111112 | 78 | 3 | 0.0 | 1.0 | 0.00 | 0.01 | 0.00 | 5 | 1014.1 |
| 20260830110611 | 78 | 0 | 0.0 | 0.0 | 0.00 | 0.01 | 0.00 | 4 | 1014.1 |
| 20260830110111 | 78 | 347 | 0.0 | 1.0 | 0.00 | 0.01 | 0.00 | 5 | 1014.1 |
| 20260830105610 | 76 | 0 | 0.0 | 0.0 | 0.00 | 0.01 | 0.00 | 5 | 1014.1 |
| 20260830105110 | 76 | 342 | 0.0 | 1.0 | 0.00 | 0.03 | 0.00 | 5 | 1014.2 |
| 20260830104610 | 77 | 0 | 0.0 | 0.0 | 0.00 | 0.03 | 0.00 | 5 | 1014.4 |
| 20260830104110 | 76 | 15 | 0.0 | 1.0 | 0.00 | 0.03 | 0.00 | 5 | 1014.4 |
| 20260830103609 | 77 | 286 | 0.0 | 1.0 | 0.00 | 0.03 | 0.00 | 5 | 1014.1 |
| 20260830103109 | 78 | 4 | 1.0 | 2.0 | 0.00 | 0.05 | 0.00 | 4 | 1014.4 |
| 20260830102609 | 78 | 0 | 0.0 | 0.0 | 0.00 | 0.05 | 0.00 | 5 | 1014.3 |
| 20260830102108 | 77 | 209 | 1.0 | 2.0 | 0.00 | 0.07 | 0.00 | 5 | 1014.4 |
| 20260830101608 | 77 | 306 | 1.0 | 2.0 | 0.00 | 0.07 | 0.00 | 5 | 1014.3 |
| 20260830101107 | 77 | 77 | 0.0 | 1.0 | 0.00 | 0.09 | 0.00 | 5 | 1014.3 |
| 20260830100607 | 76 | 336 | 0.0 | 1.0 | 0.00 | 0.10 | 0.00 | 5 | 1014.3 |
| 20260830100107 | 75 | 0 | 0.0 | 0.0 | 0.00 | 0.12 | 0.00 | 5 | 1014.3 |
| 20260830095606 | 75 | 0 | 0.0 | 0.0 | 0.00 | 0.14 | 0.00 | 5 | 1014.2 |
| 20260830095106 | 75 | 83 | 0.0 | 1.0 | 0.00 | 0.16 | 0.00 | 5 | 1014.4 |
| 20260830094606 | 75 | 4 | 1.0 | 2.0 | 0.00 | 0.18 | 0.00 | 5 | 1014.4 |
| 20260830094106 | 76 | 0 | 0.0 | 0.0 | 0.00 | 0.18 | 0.00 | 5 | 1014.5 |
| 20260830093605 | 76 | 22 | 0.0 | 1.0 | 0.00 | 0.20 | 0.00 | 5 | 1014.5 |
| 20260830093105 | 76 | 0 | 0.0 | 0.0 | 0.00 | 0.20 | 0.00 | 5 | 1014.6 |
| 20260830092604 | 75 | 0 | 0.0 | 0.0 | 0.00 | 0.20 | 0.00 | 5 | 1014.6 |
| 20260830092104 | 75 | 32 | 0.0 | 1.0 | 0.00 | 0.22 | 0.00 | 5 | 1014.5 |
| 20260830091604 | 75 | 338 | 0.0 | 1.0 | 0.00 | 0.22 | 0.00 | 5 | 1014.7 |
| 20260830091104 | 76 | 225 | 1.0 | 3.0 | 0.00 | 0.22 | 0.00 | 5 | 1014.6 |
| 20260830090603 | 76 | 0 | 0.0 | 0.0 | 0.00 | 0.24 | 0.00 | 5 | 1014.5 |
| 20260830090103 | 76 | 0 | 0.0 | 0.0 | 0.00 | 0.24 | 0.00 | 5 | 1014.6 |
| 20260830085603 | 75 | 48 | 0.0 | 1.0 | 0.00 | 0.24 | 0.00 | 5 | 1014.8 |
| 20260830085102 | 74 | 0 | 0.0 | 0.0 | 0.00 | 0.25 | 0.00 | 5 | 1014.9 |
| 20260830084602 | 73 | 79 | 1.0 | 2.0 | 0.00 | 0.25 | 0.00 | 6 | 1014.8 |
| 20260830084102 | 73 | 260 | 2.0 | 3.0 | 0.00 | 0.25 | 0.00 | 5 | 1014.8 |
| 20260830083601 | 74 | 0 | 0.0 | 0.0 | 0.00 | 0.25 | 0.00 | 6 | 1014.9 |
| 20260830083101 | 74 | 20 | 0.0 | 1.0 | 0.00 | 0.25 | 0.00 | 5 | 1015.0 |
| 20260830082601 | 72 | 0 | 0.0 | 0.0 | 0.00 | 0.25 | 0.00 | 6 | 1015.1 |
| 20260830082100 | 71 | 0 | 0.0 | 0.0 | 0.00 | 0.25 | 0.00 | 6 | 1014.8 |
| 20260830081600 | 72 | 0 | 0.0 | 0.0 | 0.00 | 0.25 | 0.00 | 6 | 1014.9 |
| 20260830081100 | 72 | 0 | 0.0 | 0.0 | 0.00 | 0.25 | 0.00 | 6 | 1014.8 |
| 20260830080559 | 71 | 0 | 0.0 | 0.0 | 0.00 | 0.25 | 0.00 | 6 | 1014.9 |
| 20260830080059 | 70 | 0 | 0.0 | 0.0 | 0.00 | 0.27 | 0.00 | 6 | 1014.9 |
| 20260830075559 | 70 | 0 | 0.0 | 0.0 | 0.00 | 0.27 | 0.00 | 6 | 1014.9 |
| 20260830075058 | 70 | 0 | 0.0 | 0.0 | 0.00 | 0.27 | 0.00 | 6 | 1014.8 |
| 20260830074558 | 70 | 0 | 0.0 | 0.0 | 0.00 | 0.31 | 0.00 | 6 | 1014.9 |
| 20260830074058 | 70 | 0 | 0.0 | 0.0 | 0.00 | 0.31 | 0.00 | 6 | 1014.8 |
| 20260830073557 | 70 | 0 | 0.0 | 0.0 | 0.00 | 0.31 | 0.00 | 6 | 1015.1 |
| 20260830073057 | 69 | 0 | 0.0 | 0.0 | 0.00 | 0.33 | 0.00 | 6 | 1015.0 |
| 20260830072557 | 69 | 0 | 0.0 | 0.0 | 0.00 | 0.33 | 0.00 | 6 | 1015.1 |
| 20260830072056 | 71 | 0 | 0.0 | 0.0 | 0.00 | 0.33 | 0.00 | 6 | 1015.1 |
| 20260830071556 | 71 | 0 | 0.0 | 0.0 | 0.00 | 0.33 | 0.00 | 6 | 1015.0 |
| 20260830071056 | 70 | 0 | 0.0 | 0.0 | 0.00 | 0.33 | 0.00 | 6 | 1014.8 |
| 20260830070555 | 69 | 0 | 0.0 | 0.0 | 0.00 | 0.33 | 0.00 | 6 | 1014.9 |
| 20260830070055 | 70 | 0 | 0.0 | 0.0 | 0.00 | 0.33 | 0.00 | 6 | 1014.9 |
| 20260830065555 | 71 | 0 | 0.0 | 0.0 | 0.00 | 0.33 | 0.00 | 6 | 1014.8 |
| 20260830065054 | 71 | 0 | 0.0 | 0.0 | 0.00 | 0.33 | 0.00 | 6 | 1014.7 |
| 20260830064554 | 71 | 0 | 0.0 | 0.0 | 0.00 | 0.33 | 0.00 | 6 | 1015.0 |
| 20260830064054 | 70 | 0 | 0.0 | 0.0 | 0.00 | 0.33 | 0.00 | 6 | 1014.9 |
| 20260830063553 | 70 | 0 | 0.0 | 0.0 | 0.00 | 0.33 | 0.00 | 6 | 1015.0 |
| 20260830063053 | 69 | 0 | 0.0 | 0.0 | 0.00 | 0.33 | 0.00 | 6 | 1015.0 |
| 20260830062553 | 68 | 0 | 0.0 | 0.0 | 0.00 | 0.33 | 0.00 | 6 | 1015.1 |
| 20260830062052 | 68 | 0 | 0.0 | 0.0 | 0.00 | 0.33 | 0.00 | 6 | 1014.9 |
| 20260830061552 | 67 | 0 | 0.0 | 0.0 | 0.00 | 0.33 | 0.00 | 6 | 1015.1 |
| 20260830061052 | 66 | 0 | 0.0 | 0.0 | 0.00 | 0.33 | 0.00 | 7 | 1014.9 |
| 20260830060551 | 65 | 0 | 0.0 | 0.0 | 0.00 | 0.33 | 0.00 | 7 | 1015.1 |
| 20260830060051 | 65 | 0 | 0.0 | 0.0 | 0.00 | 0.33 | 0.00 | 7 | 1014.9 |
| 20260830055551 | 64 | 0 | 0.0 | 0.0 | 0.00 | 0.33 | 0.00 | 7 | 1014.9 |
| 20260830055050 | 64 | 0 | 0.0 | 0.0 | 0.00 | 0.33 | 0.00 | 7 | 1015.0 |
| 20260830054550 | 63 | 0 | 0.0 | 0.0 | 0.00 | 0.33 | 0.00 | 7 | 1015.0 |
| 20260830054050 | 63 | 0 | 0.0 | 0.0 | 0.00 | 0.33 | 0.00 | 7 | 1015.0 |
| 20260830053549 | 63 | 0 | 0.0 | 0.0 | 0.00 | 0.33 | 0.00 | 7 | 1015.2 |
| 20260830053049 | 61 | 0 | 0.0 | 0.0 | 0.00 | 0.33 | 0.00 | 8 | 1015.0 |
| 20260830052549 | 61 | 0 | 0.0 | 0.0 | 0.00 | 0.33 | 0.00 | 8 | 1015.2 |
| 20260830052048 | 60 | 0 | 0.0 | 0.0 | 0.00 | 0.33 | 0.00 | 8 | 1015.2 |
| 20260830051548 | 60 | 0 | 0.0 | 0.0 | 0.00 | 0.33 | 0.00 | 8 | 1015.0 |
| 20260830051048 | 59 | 0 | 0.0 | 0.0 | 0.00 | 0.33 | 0.00 | 8 | 1015.1 |
| 20260830050547 | 59 | 0 | 0.0 | 0.0 | 0.00 | 0.33 | 0.00 | 8 | 1014.9 |
| 20260830050047 | 58 | 0 | 0.0 | 0.0 | 0.00 | 0.33 | 0.00 | 9 | 1014.6 |
| 20260830045547 | 58 | 0 | 0.0 | 0.0 | 0.00 | 0.33 | 0.00 | 9 | 1014.9 |
| 20260830045046 | 58 | 0 | 0.0 | 0.0 | 0.00 | 0.33 | 0.00 | 9 | 1015.0 |
| 20260830044546 | 58 | 0 | 0.0 | 0.0 | 0.00 | 0.33 | 0.00 | 9 | 1015.1 |
| 20260830044046 | 57 | 0 | 0.0 | 0.0 | 0.00 | 0.33 | 0.00 | 9 | 1015.1 |
| 20260830043545 | 57 | 0 | 0.0 | 0.0 | 0.00 | 0.33 | 0.00 | 9 | 1015.1 |
| 20260830043045 | 57 | 0 | 0.0 | 0.0 | 0.00 | 0.33 | 0.00 | 9 | 1015.1 |
| 20260830042545 | 57 | 0 | 0.0 | 0.0 | 0.00 | 0.33 | 0.00 | 9 | 1015.1 |
| 20260830042044 | 57 | 0 | 0.0 | 0.0 | 0.00 | 0.33 | 0.00 | 9 | 1015.0 |
| 20260830041544 | 57 | 0 | 0.0 | 0.0 | 0.00 | 0.33 | 0.00 | 9 | 1014.9 |
| 20260830041044 | 57 | 0 | 0.0 | 0.0 | 0.00 | 0.33 | 0.00 | 9 | 1015.0 |
| 20260830040543 | 57 | 0 | 0.0 | 0.0 | 0.00 | 0.33 | 0.00 | 9 | 1015.1 |
| 20260830040043 | 57 | 0 | 0.0 | 0.0 | 0.00 | 0.33 | 0.00 | 9 | 1015.0 |
| 20260830035543 | 57 | 0 | 0.0 | 0.0 | 0.00 | 0.33 | 0.00 | 9 | 1015.1 |
| 20260830035042 | 57 | 0 | 0.0 | 0.0 | 0.00 | 0.33 | 0.00 | 9 | 1014.9 |
| 20260830034542 | 57 | 0 | 0.0 | 0.0 | 0.00 | 0.33 | 0.00 | 9 | 1015.0 |
| 20260830034042 | 57 | 0 | 0.0 | 0.0 | 0.00 | 0.33 | 0.00 | 9 | 1015.0 |
| 20260830033541 | 57 | 0 | 0.0 | 0.0 | 0.00 | 0.33 | 0.00 | 9 | 1015.1 |
| 20260830033041 | 57 | 0 | 0.0 | 0.0 | 0.00 | 0.33 | 0.00 | 9 | 1015.1 |
| 20260830032541 | 57 | 0 | 0.0 | 0.0 | 0.00 | 0.33 | 0.00 | 9 | 1015.1 |
| 20260830032040 | 57 | 0 | 0.0 | 0.0 | 0.00 | 0.33 | 0.00 | 9 | 1015.1 |
| 20260830031540 | 57 | 0 | 0.0 | 0.0 | 0.00 | 0.33 | 0.00 | 9 | 1014.9 |
| 20260830031040 | 57 | 0 | 0.0 | 0.0 | 0.00 | 0.33 | 0.00 | 9 | 1015.4 |
| 20260830030539 | 57 | 0 | 0.0 | 0.0 | 0.00 | 0.33 | 0.00 | 9 | 1015.1 |
| 20260830030039 | 57 | 0 | 0.0 | 0.0 | 0.00 | 0.33 | 0.00 | 9 | 1015.0 |
| 20260830025539 | 57 | 0 | 0.0 | 0.0 | 0.00 | 0.33 | 0.00 | 9 | 1015.1 |
| 20260830025038 | 57 | 0 | 0.0 | 0.0 | 0.00 | 0.33 | 0.00 | 9 | 1015.1 |
| 20260830024538 | 57 | 0 | 0.0 | 0.0 | 0.00 | 0.33 | 0.00 | 9 | 1015.1 |
| 20260830024038 | 57 | 0 | 0.0 | 0.0 | 0.00 | 0.33 | 0.00 | 9 | 1014.9 |
| 20260830023537 | 57 | 0 | 0.0 | 0.0 | 0.00 | 0.33 | 0.00 | 9 | 1014.8 |
| 20260830023037 | 57 | 0 | 0.0 | 0.0 | 0.00 | 0.33 | 0.00 | 9 | 1015.1 |
| 20260830022537 | 57 | 0 | 0.0 | 0.0 | 0.00 | 0.33 | 0.00 | 9 | 1014.9 |
| 20260830022036 | 57 | 0 | 0.0 | 0.0 | 0.00 | 0.33 | 0.00 | 9 | 1014.8 |
| 20260830021536 | 57 | 0 | 0.0 | 0.0 | 0.00 | 0.33 | 0.00 | 9 | 1015.0 |
| 20260830021036 | 57 | 0 | 0.0 | 0.0 | 0.00 | 0.33 | 0.00 | 9 | 1014.7 |
| 20260830020535 | 57 | 0 | 0.0 | 0.0 | 0.00 | 0.33 | 0.00 | 9 | 1014.9 |
| 20260830020035 | 57 | 0 | 0.0 | 0.0 | 0.00 | 0.33 | 0.00 | 9 | 1015.0 |
| 20260830015535 | 57 | 0 | 0.0 | 0.0 | 0.00 | 0.33 | 0.00 | 9 | 1014.7 |
| 20260830015034 | 57 | 0 | 0.0 | 0.0 | 0.00 | 0.33 | 0.00 | 9 | 1014.9 |
| 20260830014534 | 57 | 0 | 0.0 | 0.0 | 0.00 | 0.33 | 0.00 | 9 | 1014.9 |
| 20260830014034 | 57 | 0 | 0.0 | 0.0 | 0.00 | 0.33 | 0.00 | 9 | 1014.9 |
| 20260830013533 | 57 | 0 | 0.0 | 0.0 | 0.00 | 0.33 | 0.00 | 9 | 1014.7 |
| 20260830013033 | 57 | 0 | 0.0 | 0.0 | 0.00 | 0.33 | 0.00 | 9 | 1014.8 |
| 20260830012533 | 58 | 0 | 0.0 | 0.0 | 0.00 | 0.33 | 0.00 | 9 | 1014.7 |
| 20260830012032 | 58 | 0 | 0.0 | 0.0 | 0.00 | 0.33 | 0.00 | 9 | 1014.7 |
| 20260830011532 | 58 | 0 | 0.0 | 0.0 | 0.00 | 0.33 | 0.00 | 9 | 1014.5 |